Tracking 17938 objects as of 24-February-2017
HD Live streaming from Space Station
objects crossing your sky now

PACE

Track PACE now!
10-day predictions
PACE is classified as:


NORAD ID: 40023
Int'l Code: 2014-033P
Perigee: 600.8 km
Apogee: 618.7 km
Inclination: 97.9 °
Period: 96.7 minutes
Semi major axis: 6980 km
RCS: Unknown
Launch date: June 19, 2014
Source: (TBD)
Launch site: Orenburg, Russia (OREN)
Uplink (MHz):
Downlink (MHz): 437.485
Beacon (MHz): 437.485
Mode: 1200bps AFSK CW
Call sign:
Status: Inactive

Your satellite tracking list
Your tracking list is empty





NASA's NSSDC Master Catalog

Two Line Element Set (TLE):
1 40023U 14033P   17054.73253289  .00001187  00000-0  13369-3 0  9998
2 40023  97.9273 326.9424 0012791 326.6650  33.3760 14.88494445145627
Source of the keplerian elements: Caltech